sat.trackr.live / text

‹ back to catalog

STARLINK-34591

NORAD 64734 · 2025-144L

PAYLOAD ACTIVE UNKNOWN

§ Identity

Operator
Country
US
Launch date
2025-07-02
Launch site
AFETR
Launch vehicle
Mass (kg)
RCS (m²)

Purposes: comms

External: N2YO · Heavens-Above · Gunter

§ Orbital elements

Epoch: 2026-05-24T20:14:25.156608Z

Period
94.10 min
Inclination
53.1580°
Eccentricity
0.0001231
Mean motion
15.30207161 rev/d
Perigee alt
474.4 km
Apogee alt
476.0 km
Semi-major
6,853.3 km
B*
3.1676e-4
RAAN
187.1496°
Arg perigee
84.4573°
Mean anomaly
275.6568°
Rev number
5,135

§ Raw data

STARLINK-345911 64734U 25144L   26144.84334672  .00009036  00000+0  31676-3 0  99972 64734  53.1580 187.1496 0001231  84.4573 275.6568 15.30207161 51351

JSON: /api/v1/satellites/64734 · /tle

For live sub-satellite position, see the globe view (requires WebGL).

§ Visibility from observer

Set your observer location to see the next 7 days of passes ≥ 10°. The values pass through the URL so the page stays shareable.

No JS? Fill the form by hand. The geolocation button needs JavaScript.